FENGYUN 1C DEB

Satellite information

Favourite Embed

Satellite Type and Status

DEBRISIN ORBIT

Key statistics

Satellite FENGYUN 1C DEB at a glance.

Uptime

9555

Days in orbit

Revolutions

≈ 14.5

Per day

Orbit

SSO

Sun Synchronous Orbit

Inclination

99.4

Latest

Satellite identification and parameters

Extended collection of information and parameters for FENGYUN 1C DEB.

Object identification

Identified? True

Debris? True

Object name: FENGYUN 1C DEB

International designator: 1999-025CHB

Object number (NORAD): 31813

Object ID (CCSDS): 31813

Country: PEOPLES REPUBLIC OF CHINA (PRC)

Current information (Y/N): Y

RCS size: SMALL

Orbital parameters

Period: 99.378 minutes

Inclination: 99.4421 deg

SMA: 7107.008 km

Apoapsis: 828.121 km

Periapsis: 629.625 km

RAAN: 245.9279 deg

Eccentricy: 0.0139648

Argument of periapsis: 90.3578 deg

Mean anomaly: 271.3615 deg

Mean motion: 14.490138 rev/day

Mean motion (dot): 0.00001533 rev/day2

B* drag term: 0.00037107 1/REarth

Two-line elements (TLE)

Creation date: July 4, 2025, 6:39 p.m.

Reference frame: TEME

Reference center: EARTH

Epoch: July 4, 2025, 10:01 a.m. UTC

TLE line 0: 0 FENGYUN 1C DEB

TLE line 1: 1 31813U 99025CHB 25185.41758191 .00001533 00000-0 37107-3 0 9991

TLE line 2: 2 31813 99.4421 245.9279 0139648 90.3578 271.3615 14.49013800949195

Live tracking on map

Real-time ground track for satellite FENGYUN 1C DEB.

In-orbit conjunctions

A list of the most updated potential collisions computed for object FENGYUN 1C DEB.

Target Orbit TCA Probability of collision Miss distance Type
COSMOS 886 MEO 2024-11-17 01:37:31 0.0002051743 418.0 (m) PAYLOAD
BREEZE-KM R/B SSO 2024-10-28 10:32:33 0.0002392069 167.0 (m) ROCKET BODY
COSMOS 2297 LEO 2024-09-05 17:59:25 0.0008470244 334.0 (m) PAYLOAD
METEOR 2-8 DEB LEO 2024-08-26 23:58:53 0.0001463374 156.0 (m) DEBRIS

Associated space launch

Chinese polar orbiting meteorological satellite

FENGYUN 1C DEB was lifted into orbit during the mission ‘Long March 4B | Feng Yun 1C’, on board a Long March 4B space rocket.

The launch took place on May 10, 1999, 1:33 a.m. from Launch Complex 7.

For more information about the launch, click the button.

Launch to space Long March 4B | Feng Yun 1C
Long March 4B | Feng Yun 1C

Agency: N/A

Status: Launch Successful

Launch date: May 10, 1999, 1:33 a.m. UTC

Rocket: Long March 4B

Launch pad: Launch Complex 7

Location: Taiyuan Satellite Launch Center, People's Republic of China

...

Latest news about this satellite

There are no fresh news available about this satellite. Check back as we update our databases every day.


Newsletter sign-up

Weekly statistics, charts and insights to help you stay on top of the space industry.